Race Rocks, British Columbia

6:12 AM PDT on June 27, 2017 (GMT -0700)
Race Rocks

Weather History for CWQK - September, 2013

Change the Weather History Date:

Monday, September 16, 2013

  Actual Average (CYWH) Record (CYWH)
Temperature  
Mean Temperature 58 °F -  
Max Temperature 61 °F 63 °F 69 °F (1998)
Min Temperature 54 °F 50 °F 48 °F (2006)
Degree Days  
Heating Degree Days 8    
Growing Degree Days 8 (Base 50)    
Moisture  
Dew Point 54 °F    
Average Humidity 86    
Maximum Humidity 97    
Minimum Humidity 54    
Precipitation  
Precipitation 0.00 in - - ()
Sea Level Pressure  
Sea Level Pressure 29.77 in    
Wind  
Wind Speed 19 mph ()    
Max Wind Speed 34 mph    
Max Gust Speed 24 mph    
Averages and records for this station are not official NWS values.
T = Trace of Precipitation, MM = Missing Value Source: Averaged Metar Reports

Daily Weather History Graph

Daily Weather History Graph

Search for Another Location

Airport or City:

Trip Planner

Search our weather history database for the weather conditions in past years. The results will help you decide how hot, cold, wet, or windy it might be!

Date:

Astronomy

Sep. 16, 2013 Rise Set
Actual Time 6:52 AM PDT 7:23 PM PDT
Civil Twilight 6:21 AM PDT 7:55 PM PDT
Nautical Twilight 5:44 AM PDT 8:32 PM PDT
Astronomical Twilight 5:05 AM PDT 9:10 PM PDT
Moon 5:44 PM PDT (9/16) 3:34 AM PDT (9/16)
Length of Visible Light 13h 33m
Length of Day
12h 30m
Waxing Gibbous, 91% of the Moon is Illuminated
Sep 16
Waxing Gibbous
Sep 19
Full
Sep 26
Last Quarter
Oct 4
New
Oct 11
First Quarter

Hourly Weather History & Observations

Time (PDT) Temp. Dew Point Humidity Pressure Visibility Wind Dir Wind Speed Gust Speed Precip Events Conditions
12:00 AM 55.6 °F 54.7 °F 97% 29.69 in - SW 11.5 mph - N/A   Unknown
1:00 AM 61.3 °F 57.6 °F 87% 29.68 in - West 18.4 mph 24.2 mph N/A   Unknown
2:00 AM 61.0 °F 56.3 °F 85% 29.68 in - West 24.2 mph - N/A   Unknown
3:00 AM 60.4 °F 55.8 °F 85% 29.67 in - West 32.2 mph - N/A   Unknown
4:00 AM 60.4 °F 55.9 °F 85% 29.69 in - West 34.5 mph - N/A   Unknown
5:00 AM 60 °F 56 °F 82% 29.70 in - West 29.9 mph - -  
5:00 AM 59.9 °F 55.9 °F 87% 29.70 in - West 29.9 mph - N/A   Unknown
6:00 AM 59.7 °F 55.9 °F 87% 29.72 in - West 18.4 mph - N/A   Unknown
7:00 AM 55.8 °F 53.6 °F 92% 29.74 in - SW 12.7 mph - N/A   Unknown
8:00 AM 57.9 °F 55.0 °F 90% 29.76 in - SW 12.7 mph - N/A   Unknown
9:00 AM 56.1 °F 54.5 °F 94% 29.78 in - South 11.5 mph - N/A   Unknown
10:00 AM 55.9 °F 55.0 °F 97% 29.79 in - WSW 16.1 mph - N/A   Unknown
11:00 AM 54.7 °F 54.0 °F 97% 29.80 in - West 11.5 mph - N/A   Unknown
12:00 PM 56.5 °F 55.6 °F 97% 29.80 in - West 19.6 mph - N/A   Unknown
1:00 PM 59.0 °F 55.9 °F 90% 29.81 in - West 24.2 mph - N/A   Unknown
2:00 PM 56.8 °F 55.4 °F 95% 29.81 in - West 26.5 mph - N/A   Unknown
3:00 PM 58.1 °F 54.3 °F 87% 29.81 in - West 24.2 mph - N/A   Unknown
4:00 PM 59.2 °F 53.8 °F 82% 29.81 in - West 25.3 mph - N/A   Unknown
5:00 PM 60 °F 48 °F 54% 29.81 in - West 28.8 mph - -  
5:00 PM 60.1 °F 47.8 °F 64% 29.81 in - West 28.8 mph - N/A   Unknown
6:00 PM 59.4 °F 48.2 °F 67% 29.81 in - West 28.8 mph - N/A   Unknown
7:00 PM 56.5 °F 51.8 °F 84% 29.82 in - West 25.3 mph - N/A   Unknown
8:00 PM 55.8 °F 51.4 °F 85% 29.82 in - West 20.7 mph - N/A   Unknown
9:00 PM 55.0 °F 51.4 °F 88% 29.83 in - West 18.4 mph - N/A   Unknown
10:00 PM 57.6 °F 53.1 °F 85% 29.83 in - West 19.6 mph - N/A   Unknown
11:00 PM 56 °F 53 °F 86% 29.83 in - West 16.1 mph - -  
11:00 PM 56.3 °F 52.9 °F 88% 29.83 in - West 16.1 mph - N/A   Unknown